GW1596 Weather Reports


time (UTC)temp
F
wind
direction
speed
knots
gust
knots
rain 1hr
in
rain 24hr
in
rain mn
in
humidity
%
barometer
mb
20260505195709 75 280 14.8 19.1 0.00 0.00 0.00 39 1012.1
20260505194543 74 254 7.8 8.7 0.00 0.00 0.00 43 1012.5
20260505193940 74 254 7.8 17.4 0.00 0.00 0.00 42 1012.5
20260505193332 75 240 12.2 17.4 0.00 0.00 0.00 42 1012.5
20260505192115 75 251 9.6 12.2 0.00 0.00 0.00 44 1012.5
20260505190932 75 244 9.6 10.4 0.00 0.00 0.00 42 1012.5
20260505190336 75 244 12.2 15.6 0.00 0.00 0.00 43 1012.5
20260505185752 75 254 4.3 10.4 0.00 0.00 0.00 44 1012.1
20260505185140 75 248 8.7 9.6 0.00 0.00 0.00 42 1012.8
20260505184551 75 242 10.4 13.9 0.00 0.00 0.00 41 1012.5
20260505183341 75 251 11.3 13.9 0.00 0.00 0.00 41 1012.5
20260505181514 76 244 8.7 20.0 0.00 0.00 0.00 40 1012.5
20260505180926 76 220 7.0 13.0 0.00 0.00 0.00 44 1012.5
20260505180313 76 233 11.3 13.9 0.00 0.00 0.00 41 1012.5
20260505175713 76 250 10.4 14.8 0.00 0.00 0.00 41 1012.5
20260505175125 75 264 9.6 13.9 0.00 0.00 0.00 43 1012.5
20260505174525 75 248 10.4 17.4 0.00 0.00 0.00 44 1012.5
20260505173933 75 275 11.3 14.8 0.00 0.00 0.00 43 1012.8
20260505173350 75 275 9.6 12.2 0.00 0.00 0.00 43 1012.1
20260505172720 75 245 8.7 12.2 0.00 0.00 0.00 44 1012.5
20260505172131 75 252 7.8 15.6 0.00 0.00 0.00 44 1012.5
20260505171517 76 246 8.7 12.2 0.00 0.00 0.00 44 1012.1
20260505170939 76 273 8.7 13.9 0.00 0.00 0.00 44 1012.5
20260505170328 76 253 5.2 9.6 0.00 0.00 0.00 47 1012.5
20260505165708 76 247 11.3 14.8 0.00 0.00 0.00 42 1012.8
20260505165110 76 240 5.2 10.4 0.00 0.00 0.00 44 1012.8
20260505164512 76 242 10.4 13.9 0.00 0.00 0.00 43 1012.5
20260505163952 77 259 5.2 12.2 0.00 0.00 0.00 43 1012.8
20260505163316 76 248 10.4 13.0 0.00 0.00 0.00 43 1012.8
20260505162718 76 240 7.0 13.9 0.00 0.00 0.00 45 1012.8
20260505162148 74 248 14.8 15.6 0.00 0.00 0.00 43 1012.8
20260505161535 76 250 12.2 21.7 0.00 0.00 0.00 42 1012.8
20260505160921 75 268 11.3 13.9 0.00 0.00 0.00 43 1013.2
20260505160344 74 241 10.4 14.8 0.00 0.00 0.00 44 1013.2
20260505153319 74 231 9.6 19.1 0.00 0.00 0.00 44 1013.2
20260505152748 73 239 12.2 20.9 0.00 0.00 0.00 46 1013.2
20260505152114 73 263 12.2 25.2 0.00 0.00 0.00 46 1013.2
20260505151546 73 237 13.0 20.0 0.00 0.00 0.00 44 1013.2
20260505150942 73 258 9.6 14.8 0.00 0.00 0.00 47 1013.2
20260505150331 73 253 10.4 13.0 0.00 0.00 0.00 47 1013.2
20260505140322 70 231 8.7 13.9 0.00 0.00 0.00 47 1013.2
20260505124537 67 250 5.2 7.0 0.00 0.00 0.00 55 1013.5
20260505123916 67 246 7.0 8.7 0.00 0.00 0.00 53 1013.8
20260505123326 67 259 6.1 8.7 0.00 0.00 0.00 54 1013.5
20260505122715 67 226 3.5 5.2 0.00 0.00 0.00 55 1013.5
20260505122122 66 233 6.1 9.6 0.00 0.00 0.00 54 1013.2
20260505120935 65 216 1.7 5.2 0.00 0.00 0.00 58 1013.2
20260505120316 65 226 2.6 5.2 0.00 0.00 0.00 57 1013.5
20260505115721 65 198 1.7 3.5 0.00 0.00 0.00 59 1013.2
20260505115152 64 247 2.6 3.5 0.00 0.00 0.00 59 1013.2
20260505114514 64 198 4.3 6.1 0.00 0.00 0.00 59 1013.2
20260505113925 63 224 2.6 3.5 0.00 0.00 0.00 60 1012.8
20260505113317 64 258 3.5 5.2 0.00 0.00 0.00 60 1013.2
20260505112135 64 233 2.6 3.5 0.00 0.00 0.00 60 1013.2
20260505111538 64 232 2.6 5.2 0.00 0.00 0.00 59 1013.2
20260505110926 64 245 5.2 5.2 0.00 0.00 0.00 59 1013.2
20260505110324 64 228 1.7 3.5 0.00 0.00 0.00 60 1013.2
20260505101527 64 238 2.6 5.2 0.00 0.00 0.00 59 1012.8
20260505100942 64 240 2.6 3.5 0.00 0.00 0.00 59 1012.8
20260505100313 64 248 2.6 3.5 0.00 0.00 0.00 60 1012.8
20260505095740 64 244 4.3 7.0 0.00 0.00 0.00 59 1012.5
20260505095146 64 239 3.5 6.1 0.00 0.00 0.00 59 1012.5
20260505094528 64 239 4.3 5.2 0.00 0.00 0.00 59 1012.5
20260505093910 64 239 3.5 5.2 0.00 0.00 0.00 60 1012.1
20260505093331 64 238 3.5 5.2 0.00 0.00 0.00 59 1012.1
20260505092734 64 233 4.3 8.7 0.00 0.00 0.00 59 1012.5
20260505092112 64 247 3.5 6.1 0.00 0.00 0.00 58 1012.1
20260505091543 64 244 4.3 5.2 0.00 0.00 0.00 59 1012.1
20260505090932 64 243 3.5 5.2 0.00 0.00 0.00 59 1012.1
20260505090330 64 240 5.2 7.0 0.00 0.00 0.00 58 1012.1
20260505085725 65 219 3.5 6.1 0.00 0.00 0.00 58 1012.1
20260505085123 65 205 0.9 5.2 0.00 0.00 0.00 59 1012.1
20260505084548 65 238 4.3 7.0 0.00 0.00 0.00 57 1012.1
20260505083930 66 235 5.2 7.8 0.00 0.00 0.00 56 1012.1
20260505082713 65 245 4.3 7.0 0.00 0.00 0.00 57 1011.8
20260505081509 66 247 5.2 6.1 0.00 0.00 0.00 56 1011.8
20260505080952 65 260 7.0 8.7 0.00 0.00 0.00 55 1011.8
20260505080308 65 222 6.1 9.6 0.00 0.00 0.00 56 1011.5
20260505075729 64 241 5.2 7.8 0.00 0.00 0.00 59 1011.8
20260505075111 64 254 6.1 7.0 0.00 0.00 0.00 60 1011.5
20260505073939 64 227 1.7 7.0 0.00 0.00 0.00 59 1011.5
20260505073351 64 239 3.5 3.5 0.00 0.00 0.00 60 1011.1
20260505072150 63 237 2.6 5.2 0.00 0.00 0.00 62 1011.5
20260505070926 62 233 3.5 6.1 0.00 0.00 0.00 64 1011.1
20260505070310 62 243 3.5 3.5 0.00 0.00 0.00 64 1011.5
20260505065740 62 227 2.6 2.6 0.00 0.00 0.00 65 1011.5
20260505064531 62 227 1.7 2.6 0.00 0.00 0.00 66 1011.5
20260505063912 61 231 1.7 3.5 0.00 0.00 0.00 67 1011.5
20260505063352 61 225 1.7 2.6 0.00 0.00 0.00 68 1011.8
20260505062752 61 228 1.7 3.5 0.00 0.00 0.00 69 1011.8
20260505062120 60 240 3.5 3.5 0.00 0.00 0.00 70 1011.8
20260505060932 57 219 1.7 2.6 0.00 0.00 0.00 81 1011.5
20260505060347 56 198 0.0 2.6 0.00 0.00 0.00 86 1011.8
20260505055730 55 117 0.9 1.7 0.00 0.00 0.00 89 1011.8
20260505055120 54 163 0.9 1.7 0.00 0.00 0.00 93 1011.8
20260505054545 54 153 0.0 0.9 0.00 0.00 0.00 94 1011.8
20260505053930 53 112 0.0 0.9 0.00 0.00 0.00 95 1011.8
20260505053309 53 112 0.0 0.0 0.00 0.00 0.00 96 1011.8
20260505051537 53 112 0.0 0.0 0.00 0.00 0.00 96 1011.8
20260505050326 53 112 0.0 0.0 0.00 0.00 0.00 96 1011.8
20260505041526 53 112 0.0 0.0 0.00 0.00 0.00 95 1011.5
20260505040919 53 112 0.0 0.0 0.00 0.00 0.00 95 1011.5
20260505035138 53 112 0.0 0.0 0.00 0.00 0.00 94 1011.5
20260505034556 53 112 0.0 0.0 0.00 0.00 0.00 94 1011.5
20260505033913 53 112 0.0 0.0 0.00 0.00 0.00 94 1011.1
20260505033320 53 112 0.9 0.9 0.00 0.00 0.00 93 1011.1
20260505032719 53 112 0.9 0.9 0.00 0.00 0.00 93 1011.1
20260505032128 54 112 0.9 0.9 0.00 0.00 0.00 92 1011.1
20260505031514 54 112 0.0 0.0 0.00 0.00 0.00 91 1011.1
20260505030941 54 112 0.0 0.9 0.00 0.00 0.00 90 1011.5
20260505030344 54 111 0.9 0.9 0.00 0.00 0.00 91 1011.1
20260505025743 54 112 0.9 0.9 0.00 0.00 0.00 91 1011.1
20260505025129 54 112 0.0 0.0 0.00 0.00 0.00 91 1011.1
20260505024538 54 112 0.0 0.0 0.00 0.00 0.00 90 1011.1
20260505022123 55 112 0.0 0.0 0.00 0.00 0.00 89 1011.1
20260505021512 56 112 0.0 0.9 0.00 0.00 0.00 88 1011.1
20260505020926 56 112 0.0 0.0 0.00 0.00 0.00 86 1011.1
20260505020317 56 112 0.9 1.7 0.00 0.00 0.00 86 1011.1
20260505015154 57 112 0.9 1.7 0.00 0.00 0.00 84 1011.1
20260505014530 57 112 0.0 0.0 0.00 0.00 0.00 84 1011.1
20260505013918 58 111 1.7 1.7 0.00 0.00 0.00 82 1011.1
20260505013318 58 112 0.0 0.0 0.00 0.00 0.00 82 1011.1
20260505012711 58 112 0.0 0.0 0.00 0.00 0.00 81 1010.8
20260505012147 58 112 0.0 0.0 0.00 0.00 0.00 81 1010.8
20260505011536 59 112 0.0 0.0 0.00 0.00 0.00 80 1010.8
20260505010914 59 112 0.0 0.0 0.00 0.00 0.00 78 1011.1
20260505010331 60 112 0.0 0.0 0.00 0.00 0.00 79 1010.8
20260505005751 60 112 0.0 0.0 0.00 0.00 0.00 77 1011.1
20260505005121 61 112 0.0 0.0 0.00 0.00 0.00 76 1010.8
20260505004534 61 112 0.0 0.0 0.00 0.00 0.00 75 1010.4
20260505003929 62 112 0.0 0.0 0.00 0.00 0.00 73 1010.8
20260505003354 63 112 0.0 0.0 0.00 0.00 0.00 71 1010.8
20260505002111 65 118 0.9 0.9 0.00 0.00 0.00 65 1011.1
20260505001513 66 328 0.9 0.9 0.00 0.00 0.00 63 1011.1
20260505000916 67 159 0.0 0.0 0.00 0.00 0.00 59 1011.1
20260505000318 68 159 0.0 0.0 0.00 0.00 0.00 57 1011.1
20260504235715 69 194 0.0 0.0 0.00 0.00 0.00 54 1011.1
20260504234528 70 203 1.7 1.7 0.00 0.00 0.00 51 1011.1
20260504233933 70 193 0.9 3.5 0.00 0.00 0.00 51 1011.1
20260504233341 71 221 1.7 2.6 0.00 0.00 0.00 53 1011.1
20260504232715 71 242 3.5 7.0 0.00 0.00 0.00 51 1011.1
20260504232153 72 225 1.7 2.6 0.00 0.00 0.00 51 1011.1
20260504231519 72 243 3.5 7.0 0.00 0.00 0.00 48 1011.1
20260504230952 72 191 4.3 7.8 0.00 0.00 0.00 48 1011.5
20260504225715 72 235 3.5 5.2 0.00 0.00 0.00 49 1011.5
20260504225147 72 213 5.2 7.0 0.00 0.00 0.00 49 1011.5
20260504224511 73 242 5.2 8.7 0.00 0.00 0.00 49 1011.5
20260504223935 73 255 6.1 7.0 0.00 0.00 0.00 47 1011.8
20260504223316 72 260 5.2 7.0 0.00 0.00 0.00 46 1011.8
20260504222753 72 245 6.1 7.8 0.00 0.00 0.00 48 1011.8
20260504222112 71 243 5.2 7.0 0.00 0.00 0.00 48 1011.8
20260504221522 72 241 7.0 8.7 0.00 0.00 0.00 48 1011.8
20260504220927 71 263 8.7 14.8 0.00 0.00 0.00 47 1012.1
20260504220316 71 250 4.3 7.8 0.00 0.00 0.00 48 1011.5
20260504215123 71 257 6.1 8.7 0.00 0.00 0.00 47 1011.8
20260504214552 72 250 7.0 9.6 0.00 0.00 0.00 46 1011.8
20260504213951 72 246 4.3 9.6 0.00 0.00 0.00 46 1011.8
20260504211528 71 251 6.1 8.7 0.00 0.00 0.00 46 1011.8
20260504210950 71 257 5.2 8.7 0.00 0.00 0.00 46 1011.8
20260504210330 72 235 9.6 18.2 0.00 0.00 0.00 45 1011.5
20260504205734 72 248 7.8 9.6 0.00 0.00 0.00 44 1011.5
20260504205140 72 256 7.0 8.7 0.00 0.00 0.00 47 1011.5
20260504204542 74 256 7.8 10.4 0.00 0.00 0.00 43 1011.1
20260504203931 74 248 5.2 6.1 0.00 0.00 0.00 44 1011.1
20260504202734 73 231 3.5 7.0 0.00 0.00 0.00 46 1011.1
20260504202114 74 261 10.4 12.2 0.00 0.00 0.00 43 1011.5
20260504201541 73 242 10.4 13.9 0.00 0.00 0.00 44 1011.5